map of LPOV home
LPOV - Airport
Location
City:  Ovar, Aveiro, Portugal
Name:Montijo AB
Old (Alt.):Manoeuvre Aerodrome Nr 1
ICAO:LPOV

Details
Type:Airport (Aerodrome, Airfield)
Use:Military
Latitude:4054'57"N (40.915867)
Longitude:838'45"W (-8.645918)
Datum:WGS 1984
Elevation:56 ft (17 m)
Variation:2.03W (WMM2015v2 magnetic declination)
0.16 annual change
Runways:1
Longest:8005 × 148 ft (2440 × 45 m), paved

Time
Time Zone:UTC+0 (DST+1)
Local Time:

Weather
METAR:LPOV 041400Z 31004KT 260V360 9999 FEW030 12/06 Q1030
TAF:LPOV 041111Z 0412/0512 VRB02KT CAVOK
BECMG 0412/0414 25005KT
BECMG 0416/0418 34005KT
BECMG 0418/0420 VRB02KT PROB40 0503/0508 20003KT 0400 FG BKN001

Related Locations
Nearby:
Farthest:NZKM: 12392 mi / 19944 km
Karamea, WTC, NZ

Find:

   beyond  
but within

Other Information
Maps:
NOTAMs:
Links:
Sources:

  
  • flag of Portugal
  

Sectional Chart

Flight Planning
at skyvector.com

Satellite Image

Google Maps Satellite view

 

Copyright © 2004-2019 Karl L. Swartz. All rights reserved.
The Great Circle Mapper name and logo are trademarks of the Great Circle Mapper.
All other trademarks mentioned herein belong to their respective owners.
Please see credits for attibutions and further copyright information.

  Follow gcmap on Facebook Follow gcmap on Twitter GCmap on LinkedIn

hCard Microformat

Geo Microformat